Regional Weather Roundup
Issued by NWS

Home | Current Version | Previous Version | Graphics & Text | Print | Product List | Glossary On
Versions: 1 2 3 4 5 6 7 8 9 10 11 12 13 14 15 16 17 18 19 20 21 22 23 24 25 26 27 28 29 30 31 32 33 34 35 36 37 38 39 40 41 42 43 44 45 46 47 48 49 50
229
ASUS43 KLMK 302202
RWRKY
KENTUCKY REGIONAL WEATHER ROUNDUP
NATIONAL WEATHER SERVICE LOUISVILLE KY
600 PM EDT FRI SEP 30 2016

NOTE "FAIR" INDICATES FEW OR NO CLOUDS BELOW 12,000 FEET
WITH NO SIGNIFICANT WEATHER AND/OR OBSTRUCTIONS TO VISIBILITY.

KYZ001>023-026-027-061>063-070>075-302300-
WESTERN AND SOUTH CENTRAL KENTUCKY

CITY           SKY/WX    TMP DP  RH WIND       PRES   REMARKS
PADUCAH        LGT RAIN  65  60  84 NW5       30.01R
HENDERSON      PTSUNNY   66  55  68 W6        29.97F
OWENSBORO      NOT AVBL
HOPKINSVILLE   MOSUNNY   65  62  89 SW7       30.01F
BOWLING GREEN  CLOUDY    64  57  78 SW6       30.01S
GLASGOW        CLOUDY    61  57  87 S6        30.01S
$$

KYZ024-025-028>034-038-045-046-053-302300-
NORTH CENTRAL KENTUCKY

CITY           SKY/WX    TMP DP  RH WIND       PRES   REMARKS
LOUISVILLE/SDF LGT RAIN  59  54  83 S8        30.02R
LOUISVILLE/LOU LGT RAIN  60  53  77 S6        30.02S
FORT KNOX      CLOUDY    57  54  88 SE5       30.00S
$$

KYZ035>037-039>044-047>052-055>060-089>105-302300-
NORTHEAST KENTUCKY

CITY           SKY/WX    TMP DP  RH WIND       PRES   REMARKS
LEXINGTON      PTSUNNY   61  50  67 CALM      30.03R
COVINGTON      PTSUNNY   65  52  62 S3        30.00R
FRANKFORT      CLOUDY    63  48  58 S6        30.01R
$$

KYZ054-064>069-076>088-106>120-302300-
SOUTHEAST KENTUCKY

CITY           SKY/WX    TMP DP  RH WIND       PRES   REMARKS
JACKSON        SUNNY     66  48  52 VRB3      30.02F
LONDON         MOSUNNY   64  47  53 W7        30.03S
SOMERSET       CLOUDY    61  52  72 W7        30.05S
MIDDLESBORO    CLOUDY    65  52  62 CALM      30.03R
MONTICELLO     CLOUDY    63  53  70 SW12      30.05S
$$





USA.gov is the U.S. government's official web portal to all federal, state and local government web resources and services.